Time,TemperatureF,DewpointF,PressureIn,WindDirection,WindDirectionDegrees,WindSpeedMPH,WindSpeedGustMPH,Humidity,HourlyPrecipIn,Conditions,Clouds,dailyrainin,SoftwareType,DateUTC
2013-12-29 00:00:00,56.9,54.9,30.15,East,84,0.0,5.0,93,0.00,,,0.00,Wunderground v.1.15,2013-12-29 05:00:00,
2013-12-29 00:01:00,57.1,55.1,30.15,East,84,1.0,5.0,93,0.00,,,0.00,Wunderground v.1.15,2013-12-29 05:01:00,
2013-12-29 00:06:00,58.7,56.4,30.15,ESE,110,4.0,10.0,92,0.00,,,0.00,Wunderground v.1.15,2013-12-29 05:06:00,
2013-12-29 00:11:00,59.8,56.9,30.15,ESE,123,5.0,8.0,90,0.00,,,0.00,Wunderground v.1.15,2013-12-29 05:11:00,
2013-12-29 00:16:00,60.6,57.3,30.15,SE,136,9.0,9.0,89,0.00,,,0.00,Wunderground v.1.15,2013-12-29 05:16:00,
2013-12-29 00:21:00,61.1,57.2,30.15,SE,140,5.0,5.0,87,0.00,,,0.00,Wunderground v.1.15,2013-12-29 05:21:00,
2013-12-29 00:26:00,61.1,56.6,30.14,SE,143,1.0,8.0,85,0.00,,,0.00,Wunderground v.1.15,2013-12-29 05:26:00,
2013-12-29 00:31:00,61.2,56.3,30.14,SSE,168,4.0,12.0,84,0.00,,,0.00,Wunderground v.1.15,2013-12-29 05:31:00,
2013-12-29 00:36:00,61.6,56.7,30.13,South,172,2.0,12.0,84,0.00,,,0.00,Wunderground v.1.15,2013-12-29 05:36:00,
2013-12-29 00:41:00,62.0,57.1,30.12,South,177,4.0,9.0,84,0.00,,,0.00,Wunderground v.1.15,2013-12-29 05:41:00,
2013-12-29 00:46:00,62.3,57.1,30.12,South,185,4.0,11.0,83,0.00,,,0.00,Wunderground v.1.15,2013-12-29 05:46:00,
2013-12-29 00:51:00,62.6,57.4,30.11,South,183,8.0,14.0,83,0.00,,,0.00,Wunderground v.1.15,2013-12-29 05:51:00,
2013-12-29 00:56:00,62.9,57.3,30.11,South,179,3.0,14.0,82,0.00,,,0.00,Wunderground v.1.15,2013-12-29 05:56:00,
2013-12-29 01:01:00,63.0,57.1,30.12,SSW,201,5.0,8.0,81,0.00,,,0.00,Wunderground v.1.15,2013-12-29 06:01:00,
2013-12-29 01:06:00,63.2,57.3,30.12,SSW,204,4.0,12.0,81,0.00,,,0.00,Wunderground v.1.15,2013-12-29 06:06:00,
2013-12-29 01:11:00,63.1,57.2,30.11,SSW,199,6.0,8.0,81,0.00,,,0.00,Wunderground v.1.15,2013-12-29 06:11:00,
2013-12-29 01:16:00,62.9,57.0,30.11,SSW,192,6.0,10.0,81,0.00,,,0.00,Wunderground v.1.15,2013-12-29 06:16:00,
2013-12-29 01:21:00,62.9,57.3,30.10,South,178,5.0,10.0,82,0.00,,,0.00,Wunderground v.1.15,2013-12-29 06:21:00,
2013-12-29 01:26:00,63.0,57.1,30.10,South,176,2.0,13.0,81,0.00,,,0.00,Wunderground v.1.15,2013-12-29 06:26:00,
2013-12-29 01:31:00,63.0,57.1,30.10,SSW,196,5.0,8.0,81,0.00,,,0.00,Wunderground v.1.15,2013-12-29 06:31:00,
2013-12-29 01:36:00,63.0,57.1,30.10,SSW,192,1.0,10.0,81,0.00,,,0.00,Wunderground v.1.15,2013-12-29 06:36:00,
2013-12-29 01:41:00,62.9,57.0,30.09,South,179,9.0,9.0,81,0.00,,,0.00,Wunderground v.1.15,2013-12-29 06:41:00,
2013-12-29 01:46:00,63.0,57.1,30.10,SSW,194,5.0,12.0,81,0.00,,,0.00,Wunderground v.1.15,2013-12-29 06:46:00,
2013-12-29 01:51:00,63.2,56.9,30.09,SSW,192,2.0,10.0,80,0.00,,,0.00,Wunderground v.1.15,2013-12-29 06:51:00,
2013-12-29 01:56:00,63.4,56.8,30.09,South,191,9.0,16.0,79,0.00,,,0.00,Wunderground v.1.15,2013-12-29 06:56:00,
2013-12-29 02:01:00,63.5,56.9,30.09,SSW,197,4.0,13.0,79,0.00,,,0.00,Wunderground v.1.15,2013-12-29 07:01:00,
2013-12-29 02:06:00,63.6,56.6,30.10,SSW,199,7.0,15.0,78,0.00,,,0.00,Wunderground v.1.15,2013-12-29 07:06:00,
2013-12-29 02:11:00,63.6,56.6,30.09,South,186,9.0,15.0,78,0.00,,,0.00,Wunderground v.1.15,2013-12-29 07:11:00,
2013-12-29 02:16:00,63.8,56.8,30.10,South,186,6.0,15.0,78,0.00,,,0.00,Wunderground v.1.15,2013-12-29 07:16:00,
2013-12-29 02:21:00,64.0,56.6,30.10,South,180,3.0,11.0,77,0.00,,,0.00,Wunderground v.1.15,2013-12-29 07:21:00,
2013-12-29 02:26:00,63.9,56.5,30.09,South,178,4.0,14.0,77,0.00,,,0.00,Wunderground v.1.15,2013-12-29 07:26:00,
2013-12-29 02:31:00,63.8,56.4,30.09,South,175,8.0,15.0,77,0.00,,,0.00,Wunderground v.1.15,2013-12-29 07:31:00,
2013-12-29 02:36:00,63.8,56.4,30.09,SSW,201,5.0,15.0,77,0.00,,,0.00,Wunderground v.1.15,2013-12-29 07:36:00,
2013-12-29 02:41:00,63.8,56.4,30.08,SSW,195,9.0,9.0,77,0.00,,,0.00,Wunderground v.1.15,2013-12-29 07:41:00,
2013-12-29 02:46:00,63.9,56.5,30.08,South,174,20.0,20.0,77,0.00,,,0.00,Wunderground v.1.15,2013-12-29 07:46:00,
2013-12-29 02:51:00,64.0,56.6,30.08,South,171,9.0,15.0,77,0.00,,,0.00,Wunderground v.1.15,2013-12-29 07:51:00,
2013-12-29 02:56:00,64.1,56.7,30.08,South,187,12.0,15.0,77,0.00,,,0.00,Wunderground v.1.15,2013-12-29 07:56:00,
2013-12-29 03:01:00,64.1,56.7,30.08,South,175,3.0,12.0,77,0.00,,,0.00,Wunderground v.1.15,2013-12-29 08:01:00,
2013-12-29 03:06:00,64.0,56.6,30.08,South,184,7.0,14.0,77,0.00,,,0.00,Wunderground v.1.15,2013-12-29 08:06:00,
2013-12-29 03:11:00,64.1,56.7,30.08,South,181,11.0,16.0,77,0.00,,,0.00,Wunderground v.1.15,2013-12-29 08:11:00,
2013-12-29 03:16:00,64.1,56.7,30.08,SSW,200,3.0,16.0,77,0.00,,,0.00,Wunderground v.1.15,2013-12-29 08:16:00,
2013-12-29 03:21:00,64.0,57.0,30.07,SSW,196,9.0,13.0,78,0.00,,,0.00,Wunderground v.1.15,2013-12-29 08:21:00,
2013-12-29 03:26:00,64.0,57.0,30.06,SSW,193,6.0,13.0,78,0.00,,,0.00,Wunderground v.1.15,2013-12-29 08:26:00,
2013-12-29 03:31:00,64.1,57.1,30.06,South,184,9.0,13.0,78,0.00,,,0.00,Wunderground v.1.15,2013-12-29 08:31:00,
2013-12-29 03:35:00,64.1,57.1,30.05,South,178,8.0,13.0,78,0.00,,,0.00,Wunderground v.1.15,2013-12-29 08:35:00,
2013-12-29 03:40:00,64.3,57.3,30.04,South,181,5.0,14.0,78,0.00,,,0.00,Wunderground v.1.15,2013-12-29 08:40:00,
2013-12-29 03:45:00,64.4,57.4,30.04,South,183,10.0,14.0,78,0.00,,,0.00,Wunderground v.1.15,2013-12-29 08:45:00,
2013-12-29 03:50:00,64.5,57.1,30.04,South,180,10.0,10.0,77,0.00,,,0.00,Wunderground v.1.15,2013-12-29 08:50:00,
2013-12-29 03:55:00,64.6,57.2,30.05,SSW,193,9.0,18.0,77,0.00,,,0.00,Wunderground v.1.15,2013-12-29 08:55:00,
2013-12-29 04:00:00,64.6,57.2,30.04,South,175,7.0,10.0,77,0.00,,,0.00,Wunderground v.1.15,2013-12-29 09:00:00,
2013-12-29 04:06:00,64.5,57.1,30.04,South,171,12.0,13.0,77,0.00,,,0.00,Wunderground v.1.15,2013-12-29 09:06:00,
2013-12-29 04:11:00,64.5,57.1,30.03,South,184,10.0,11.0,77,0.00,,,0.00,Wunderground v.1.15,2013-12-29 09:11:00,
2013-12-29 04:16:00,64.6,57.2,30.03,South,191,8.0,15.0,77,0.00,,,0.00,Wunderground v.1.15,2013-12-29 09:16:00,
2013-12-29 04:21:00,64.8,57.4,30.03,South,175,8.0,15.0,77,0.00,,,0.00,Wunderground v.1.15,2013-12-29 09:21:00,
2013-12-29 04:26:00,64.9,57.5,30.02,South,177,11.0,15.0,77,0.00,,,0.00,Wunderground v.1.15,2013-12-29 09:26:00,
2013-12-29 04:31:00,65.0,57.6,30.02,SSW,192,6.0,11.0,77,0.00,,,0.00,Wunderground v.1.15,2013-12-29 09:31:00,
2013-12-29 04:36:00,65.0,57.6,30.02,South,176,10.0,13.0,77,0.00,,,0.00,Wunderground v.1.15,2013-12-29 09:36:00,
2013-12-29 04:41:00,65.2,57.4,30.01,SSW,209,12.0,13.0,76,0.00,,,0.00,Wunderground v.1.15,2013-12-29 09:41:00,
2013-12-29 04:46:00,65.4,57.6,30.01,SSW,209,9.0,14.0,76,0.00,,,0.00,Wunderground v.1.15,2013-12-29 09:46:00,
2013-12-29 04:50:00,65.2,57.4,30.01,South,178,8.0,11.0,76,0.00,,,0.00,Wunderground v.1.15,2013-12-29 09:50:00,
2013-12-29 04:55:00,65.1,57.7,30.01,SSW,198,9.0,15.0,77,0.00,,,0.00,Wunderground v.1.15,2013-12-29 09:55:00,
2013-12-29 05:00:00,65.2,57.4,30.00,South,186,11.0,11.0,76,0.00,,,0.00,Wunderground v.1.15,2013-12-29 10:00:00,
2013-12-29 05:05:00,65.4,57.3,30.00,South,184,9.0,18.0,75,0.00,,,0.00,Wunderground v.1.15,2013-12-29 10:05:00,
2013-12-29 05:10:00,65.6,57.8,30.00,SSW,209,11.0,12.0,76,0.00,,,0.00,Wunderground v.1.15,2013-12-29 10:10:00,
2013-12-29 05:15:00,65.6,58.2,30.00,South,190,7.0,17.0,77,0.00,,,0.00,Wunderground v.1.15,2013-12-29 10:15:00,
2013-12-29 05:20:00,65.6,58.2,29.99,South,173,7.0,12.0,77,0.00,,,0.00,Wunderground v.1.15,2013-12-29 10:20:00,
2013-12-29 05:25:00,65.8,58.4,29.99,SSW,207,9.0,17.0,77,0.00,,,0.00,Wunderground v.1.15,2013-12-29 10:25:00,
2013-12-29 05:30:00,65.9,58.5,29.99,SSW,193,9.0,11.0,77,0.00,,,0.00,Wunderground v.1.15,2013-12-29 10:30:00,
2013-12-29 05:35:00,66.0,59.3,29.99,SW,214,10.0,15.0,79,0.00,,,0.00,Wunderground v.1.15,2013-12-29 10:35:00,
2013-12-29 05:40:00,66.1,59.7,29.99,SSW,204,5.0,10.0,80,0.00,,,0.00,Wunderground v.1.15,2013-12-29 10:40:00,
2013-12-29 05:45:00,66.2,59.8,29.98,SSW,200,14.0,17.0,80,0.00,,,0.00,Wunderground v.1.15,2013-12-29 10:45:00,
2013-12-29 05:50:00,66.5,59.8,29.98,SSW,213,10.0,14.0,79,0.00,,,0.00,Wunderground v.1.15,2013-12-29 10:50:00,
2013-12-29 05:55:00,66.5,59.1,29.97,SSW,201,11.0,17.0,77,0.00,,,0.00,Wunderground v.1.15,2013-12-29 10:55:00,
2013-12-29 06:00:00,66.6,59.2,29.97,SSW,212,8.0,14.0,77,0.00,,,0.00,Wunderground v.1.15,2013-12-29 11:00:00,
2013-12-29 06:05:00,66.8,59.4,29.97,SSW,200,10.0,20.0,77,0.00,,,0.00,Wunderground v.1.15,2013-12-29 11:05:00,
2013-12-29 06:10:00,66.8,59.4,29.97,SSW,196,13.0,18.0,77,0.00,,,0.00,Wunderground v.1.15,2013-12-29 11:10:00,
2013-12-29 06:15:00,66.8,59.4,29.96,SSW,211,5.0,18.0,77,0.00,,,0.00,Wunderground v.1.15,2013-12-29 11:15:00,
2013-12-29 06:20:00,66.8,59.0,29.96,South,179,8.0,18.0,76,0.00,,,0.00,Wunderground v.1.15,2013-12-29 11:20:00,
2013-12-29 06:25:00,67.2,59.4,29.96,SSW,202,11.0,19.0,76,0.00,,,0.00,Wunderground v.1.15,2013-12-29 11:25:00,
2013-12-29 06:30:00,67.2,59.7,29.96,SSW,211,9.0,20.0,77,0.00,,,0.00,Wunderground v.1.15,2013-12-29 11:30:00,
2013-12-29 06:35:00,67.2,60.1,29.96,South,186,10.0,21.0,78,0.00,,,0.00,Wunderground v.1.15,2013-12-29 11:35:00,
2013-12-29 06:40:00,67.3,60.6,29.96,SW,229,13.0,18.0,79,0.00,,,0.00,Wunderground v.1.15,2013-12-29 11:40:00,
2013-12-29 06:45:00,67.4,61.0,29.96,SSW,200,11.0,20.0,80,0.00,,,0.00,Wunderground v.1.15,2013-12-29 11:45:00,
2013-12-29 06:50:00,67.4,60.3,29.96,SSW,197,9.0,16.0,78,0.00,,,0.00,Wunderground v.1.15,2013-12-29 11:50:00,
2013-12-29 06:55:00,67.5,60.0,29.96,SW,232,6.0,24.0,77,0.00,,,0.00,Wunderground v.1.15,2013-12-29 11:55:00,
2013-12-29 07:00:00,67.5,60.0,29.96,SSW,209,16.0,16.0,77,0.00,,,0.00,Wunderground v.1.15,2013-12-29 12:00:00,
2013-12-29 07:05:00,67.5,60.0,29.95,SSE,163,15.0,19.0,77,0.00,,,0.00,Wunderground v.1.15,2013-12-29 12:05:00,
2013-12-29 07:10:00,67.8,60.3,29.95,SSW,212,10.0,18.0,77,0.00,,,0.00,Wunderground v.1.15,2013-12-29 12:10:00,
2013-12-29 07:15:00,67.9,60.8,29.95,SSW,203,15.0,21.0,78,0.00,,,0.00,Wunderground v.1.15,2013-12-29 12:15:00,
2013-12-29 07:20:00,67.9,61.1,29.94,SSW,213,10.0,18.0,79,0.00,,,0.00,Wunderground v.1.15,2013-12-29 12:20:00,
2013-12-29 07:25:00,67.8,61.0,29.94,South,179,5.0,19.0,79,0.00,,,0.00,Wunderground v.1.15,2013-12-29 12:25:00,
2013-12-29 07:30:00,68.1,61.3,29.94,SW,216,12.0,15.0,79,0.00,,,0.00,Wunderground v.1.15,2013-12-29 12:30:00,
2013-12-29 07:35:00,68.2,61.8,29.94,SSW,207,11.0,22.0,80,0.00,,,0.00,Wunderground v.1.15,2013-12-29 12:35:00,
2013-12-29 07:40:00,68.0,61.6,29.94,SSW,210,10.0,24.0,80,0.00,,,0.00,Wunderground v.1.15,2013-12-29 12:40:00,
2013-12-29 07:45:00,67.8,61.8,29.93,South,190,11.0,24.0,81,0.00,,,0.00,Wunderground v.1.15,2013-12-29 12:45:00,
2013-12-29 07:50:00,67.7,62.0,29.93,SW,217,9.0,21.0,82,0.00,,,0.00,Wunderground v.1.15,2013-12-29 12:50:00,
2013-12-29 07:55:00,67.8,62.1,29.93,SSW,211,8.0,23.0,82,0.00,,,0.00,Wunderground v.1.15,2013-12-29 12:55:00,
2013-12-29 08:00:00,67.9,62.5,29.92,SSW,193,5.0,19.0,83,0.00,,,0.00,Wunderground v.1.15,2013-12-29 13:00:00,
2013-12-29 08:05:00,67.9,62.5,29.92,SSW,205,12.0,25.0,83,0.00,,,0.00,Wunderground v.1.15,2013-12-29 13:05:00,
2013-12-29 08:10:00,68.0,63.0,29.92,SSW,208,11.0,20.0,84,0.00,,,0.00,Wunderground v.1.15,2013-12-29 13:10:00,
2013-12-29 08:15:00,68.0,63.0,29.91,SSW,207,13.0,21.0,84,0.00,,,0.00,Wunderground v.1.15,2013-12-29 13:15:00,
2013-12-29 08:20:00,68.3,63.3,29.91,SSE,163,10.0,17.0,84,0.00,,,0.00,Wunderground v.1.15,2013-12-29 13:20:00,
2013-12-29 08:25:00,68.6,63.2,29.92,SSW,211,16.0,23.0,83,0.00,,,0.00,Wunderground v.1.15,2013-12-29 13:25:00,
2013-12-29 08:30:00,68.8,63.1,29.92,SW,227,9.0,17.0,82,0.00,,,0.00,Wunderground v.1.15,2013-12-29 13:30:00,
2013-12-29 08:35:00,68.8,63.4,29.91,SSW,195,10.0,27.0,83,0.00,,,0.00,Wunderground v.1.15,2013-12-29 13:35:00,
2013-12-29 08:40:00,68.9,63.5,29.91,SW,220,14.0,29.0,83,0.00,,,0.00,Wunderground v.1.15,2013-12-29 13:40:00,
2013-12-29 08:45:00,69.2,63.5,29.91,South,188,15.0,29.0,82,0.00,,,0.00,Wunderground v.1.15,2013-12-29 13:45:00,
2013-12-29 08:50:00,69.2,63.5,29.91,South,177,12.0,17.0,82,0.00,,,0.00,Wunderground v.1.15,2013-12-29 13:50:00,
2013-12-29 08:55:00,69.2,63.8,29.91,SSW,210,7.0,20.0,83,0.00,,,0.00,Wunderground v.1.15,2013-12-29 13:55:00,
2013-12-29 09:00:00,69.3,63.9,29.91,SSW,198,9.0,19.0,83,0.00,,,0.00,Wunderground v.1.15,2013-12-29 14:00:00,
2013-12-29 09:05:00,69.2,64.2,29.90,SW,223,9.0,21.0,84,0.00,,,0.00,Wunderground v.1.15,2013-12-29 14:05:00,
2013-12-29 09:10:00,69.1,64.1,29.91,SW,234,16.0,22.0,84,0.00,,,0.00,Wunderground v.1.15,2013-12-29 14:10:00,
2013-12-29 09:15:00,69.1,64.1,29.91,SSW,202,8.0,25.0,84,0.00,,,0.00,Wunderground v.1.15,2013-12-29 14:15:00,
2013-12-29 09:20:00,69.0,64.0,29.90,SW,223,8.0,27.0,84,0.00,,,0.00,Wunderground v.1.15,2013-12-29 14:20:00,
2013-12-29 09:26:00,69.1,64.4,29.90,SSW,203,10.0,28.0,85,0.00,,,0.00,Wunderground v.1.15,2013-12-29 14:26:00,
2013-12-29 09:31:00,69.1,64.4,29.90,SSW,200,15.0,22.0,85,0.00,,,0.00,Wunderground v.1.15,2013-12-29 14:31:00,
2013-12-29 09:36:00,69.1,64.4,29.90,SW,214,5.0,24.0,85,0.00,,,0.00,Wunderground v.1.15,2013-12-29 14:36:00,
2013-12-29 09:41:00,69.0,64.6,29.89,SW,216,13.0,21.0,86,0.00,,,0.00,Wunderground v.1.15,2013-12-29 14:41:00,
2013-12-29 09:46:00,69.0,64.6,29.89,SW,225,15.0,26.0,86,0.00,,,0.00,Wunderground v.1.15,2013-12-29 14:46:00,
2013-12-29 09:51:00,69.3,64.6,29.88,SW,232,15.0,21.0,85,0.00,,,0.00,Wunderground v.1.15,2013-12-29 14:51:00,
2013-12-29 09:56:00,69.3,64.6,29.88,SSW,197,10.0,22.0,85,0.00,,,0.00,Wunderground v.1.15,2013-12-29 14:56:00,
2013-12-29 10:01:00,69.3,64.3,29.88,South,184,16.0,19.0,84,0.00,,,0.00,Wunderground v.1.15,2013-12-29 15:01:00,
2013-12-29 10:06:00,69.5,63.8,29.89,SSW,199,14.0,20.0,82,0.00,,,0.00,Wunderground v.1.15,2013-12-29 15:06:00,
2013-12-29 10:10:00,69.7,64.0,29.88,SSW,203,11.0,24.0,82,0.00,,,0.00,Wunderground v.1.15,2013-12-29 15:10:00,
2013-12-29 10:16:00,70.0,63.9,29.87,SSW,207,11.0,25.0,81,0.00,,,0.00,Wunderground v.1.15,2013-12-29 15:16:00,
2013-12-29 10:21:00,70.3,63.8,29.87,SSW,212,12.0,15.0,80,0.00,,,0.00,Wunderground v.1.15,2013-12-29 15:21:00,
2013-12-29 10:25:00,70.4,63.9,29.87,SSW,196,9.0,21.0,80,0.00,,,0.00,Wunderground v.1.15,2013-12-29 15:25:00,
2013-12-29 10:31:00,70.6,64.1,29.87,SW,215,12.0,17.0,80,0.00,,,0.00,Wunderground v.1.15,2013-12-29 15:31:00,
2013-12-29 10:35:00,70.6,64.1,29.87,SSW,209,9.0,24.0,80,0.00,,,0.00,Wunderground v.1.15,2013-12-29 15:35:00,
2013-12-29 10:40:00,70.5,64.0,29.86,SSW,213,13.0,19.0,80,0.00,,,0.00,Wunderground v.1.15,2013-12-29 15:40:00,
2013-12-29 10:45:00,70.4,64.3,29.86,SW,230,9.0,23.0,81,0.00,,,0.00,Wunderground v.1.15,2013-12-29 15:45:00,
2013-12-29 10:50:00,70.3,64.5,29.86,SW,227,14.0,22.0,82,0.00,,,0.00,Wunderground v.1.15,2013-12-29 15:50:00,
2013-12-29 10:55:00,70.3,64.2,29.85,SW,220,15.0,24.0,81,0.00,,,0.00,Wunderground v.1.15,2013-12-29 15:55:00,
2013-12-29 11:00:00,70.1,64.3,29.84,South,191,14.0,17.0,82,0.00,,,0.00,Wunderground v.1.15,2013-12-29 16:00:00,
2013-12-29 11:05:00,70.0,64.2,29.84,SSW,213,14.0,27.0,82,0.00,,,0.00,Wunderground v.1.15,2013-12-29 16:05:00,
2013-12-29 11:10:00,69.6,64.2,29.83,SSW,205,14.0,22.0,83,0.00,,,0.00,Wunderground v.1.15,2013-12-29 16:10:00,
2013-12-29 11:15:00,69.7,64.6,29.82,SW,221,9.0,24.0,84,0.00,,,0.00,Wunderground v.1.15,2013-12-29 16:15:00,
2013-12-29 11:20:00,70.1,64.7,29.82,SW,218,13.0,26.0,83,0.00,,,0.00,Wunderground v.1.15,2013-12-29 16:20:00,
2013-12-29 11:25:00,70.3,64.5,29.82,SSW,205,14.0,26.0,82,0.00,,,0.00,Wunderground v.1.15,2013-12-29 16:25:00,
2013-12-29 11:30:00,70.4,64.6,29.81,SSW,200,8.0,15.0,82,0.00,,,0.00,Wunderground v.1.15,2013-12-29 16:30:00,
2013-12-29 11:35:00,70.5,64.4,29.81,WSW,251,19.0,24.0,81,0.00,,,0.00,Wunderground v.1.15,2013-12-29 16:35:00,
2013-12-29 11:40:00,70.6,64.5,29.79,WSW,246,20.0,21.0,81,0.00,,,0.00,Wunderground v.1.15,2013-12-29 16:40:00,
2013-12-29 11:45:00,70.7,64.6,29.79,SW,228,14.0,23.0,81,0.00,,,0.00,Wunderground v.1.15,2013-12-29 16:45:00,
2013-12-29 11:50:00,70.6,64.5,29.79,SW,219,15.0,20.0,81,0.00,,,0.00,Wunderground v.1.15,2013-12-29 16:50:00,
2013-12-29 11:55:00,70.6,64.5,29.78,SSW,196,11.0,27.0,81,0.00,,,0.00,Wunderground v.1.15,2013-12-29 16:55:00,
2013-12-29 12:00:00,70.7,64.9,29.78,SW,230,6.0,20.0,82,0.00,,,0.00,Wunderground v.1.15,2013-12-29 17:00:00,
2013-12-29 12:05:00,70.7,64.9,29.77,SW,229,9.0,27.0,82,0.00,,,0.00,Wunderground v.1.15,2013-12-29 17:05:00,
2013-12-29 12:10:00,70.7,64.9,29.77,SSW,203,19.0,19.0,82,0.00,,,0.00,Wunderground v.1.15,2013-12-29 17:10:00,
2013-12-29 12:15:00,70.7,64.9,29.77,WSW,248,14.0,27.0,82,0.00,,,0.00,Wunderground v.1.15,2013-12-29 17:15:00,
2013-12-29 12:20:00,70.5,65.1,29.76,SSW,209,8.0,22.0,83,0.00,,,0.00,Wunderground v.1.15,2013-12-29 17:20:00,
2013-12-29 12:25:00,70.7,65.6,29.76,SW,215,12.0,27.0,84,0.00,,,0.00,Wunderground v.1.15,2013-12-29 17:25:00,
2013-12-29 12:30:00,70.3,65.6,29.76,WSW,238,12.0,23.0,85,0.00,,,0.00,Wunderground v.1.15,2013-12-29 17:30:00,
2013-12-29 12:35:00,69.7,65.3,29.76,SW,236,11.0,26.0,86,0.00,,,0.01,Wunderground v.1.15,2013-12-29 17:35:00,
2013-12-29 12:40:00,69.2,65.5,29.75,SW,217,11.0,20.0,88,0.17,,,0.02,Wunderground v.1.15,2013-12-29 17:40:00,
2013-12-29 12:45:00,68.6,65.2,29.75,SW,218,13.0,27.0,89,0.34,,,0.05,Wunderground v.1.15,2013-12-29 17:45:00,
2013-12-29 12:50:00,68.4,65.4,29.75,SW,220,9.0,20.0,90,0.27,,,0.08,Wunderground v.1.15,2013-12-29 17:50:00,
2013-12-29 12:55:00,68.1,65.4,29.75,SW,223,9.0,25.0,91,0.21,,,0.09,Wunderground v.1.15,2013-12-29 17:55:00,
2013-12-29 13:00:00,68.1,65.7,29.75,SW,217,11.0,23.0,92,0.27,,,0.12,Wunderground v.1.15,2013-12-29 18:00:00,
2013-12-29 13:05:00,68.0,65.6,29.75,SW,228,13.0,27.0,92,0.20,,,0.13,Wunderground v.1.15,2013-12-29 18:05:00,
2013-12-29 13:10:00,67.8,65.7,29.74,SSW,207,17.0,19.0,93,0.23,,,0.15,Wunderground v.1.15,2013-12-29 18:10:00,
2013-12-29 13:15:00,67.8,65.7,29.74,SSW,204,8.0,33.0,93,0.15,,,0.16,Wunderground v.1.15,2013-12-29 18:15:00,
2013-12-29 13:20:00,67.8,66.0,29.72,WSW,240,16.0,23.0,94,0.12,,,0.17,Wunderground v.1.15,2013-12-29 18:20:00,
2013-12-29 13:25:00,67.9,66.1,29.72,SW,217,6.0,27.0,94,0.07,,,0.17,Wunderground v.1.15,2013-12-29 18:25:00,
2013-12-29 13:30:00,68.0,66.2,29.72,SW,228,15.0,19.0,94,0.04,,,0.17,Wunderground v.1.15,2013-12-29 18:30:00,
2013-12-29 13:35:00,68.0,66.2,29.71,SSW,210,8.0,24.0,94,0.00,,,0.18,Wunderground v.1.15,2013-12-29 18:35:00,
2013-12-29 13:40:00,68.1,66.6,29.71,South,182,10.0,19.0,95,0.00,,,0.18,Wunderground v.1.15,2013-12-29 18:40:00,
2013-12-29 13:45:00,68.1,66.6,29.71,WSW,241,11.0,23.0,95,0.00,,,0.18,Wunderground v.1.15,2013-12-29 18:45:00,
2013-12-29 13:50:00,67.9,66.4,29.71,WSW,245,13.0,17.0,95,0.00,,,0.18,Wunderground v.1.15,2013-12-29 18:50:00,
2013-12-29 13:55:00,68.1,66.6,29.69,SW,227,15.0,24.0,95,0.00,,,0.18,Wunderground v.1.15,2013-12-29 18:55:00,
2013-12-29 14:00:00,68.2,67.0,29.69,SW,232,16.0,21.0,96,0.00,,,0.19,Wunderground v.1.15,2013-12-29 19:00:00,
2013-12-29 14:05:00,68.5,67.3,29.69,WSW,244,21.0,35.0,96,0.00,,,0.19,Wunderground v.1.15,2013-12-29 19:05:00,
2013-12-29 14:10:00,68.5,67.0,29.69,South,188,16.0,21.0,95,0.00,,,0.19,Wunderground v.1.15,2013-12-29 19:10:00,
2013-12-29 14:15:00,68.8,67.3,29.70,WSW,237,19.0,29.0,95,0.00,,,0.19,Wunderground v.1.15,2013-12-29 19:15:00,
2013-12-29 14:20:00,68.5,67.0,29.70,SW,227,13.0,20.0,95,0.00,,,0.19,Wunderground v.1.15,2013-12-29 19:20:00,
2013-12-29 14:25:00,68.4,66.9,29.69,South,188,13.0,25.0,95,0.00,,,0.19,Wunderground v.1.15,2013-12-29 19:25:00,
2013-12-29 14:30:00,68.1,66.6,29.70,WSW,241,10.0,30.0,95,0.00,,,0.19,Wunderground v.1.15,2013-12-29 19:30:00,
2013-12-29 14:35:00,67.6,65.5,29.70,WSW,242,14.0,30.0,93,0.00,,,0.19,Wunderground v.1.15,2013-12-29 19:35:00,
2013-12-29 14:40:00,67.0,64.6,29.70,WSW,248,10.0,17.0,92,0.00,,,0.19,Wunderground v.1.15,2013-12-29 19:40:00,
2013-12-29 14:45:00,66.6,64.2,29.70,West,259,9.0,25.0,92,0.00,,,0.19,Wunderground v.1.15,2013-12-29 19:45:00,
2013-12-29 14:50:00,66.5,64.1,29.70,WSW,247,23.0,23.0,92,0.00,,,0.19,Wunderground v.1.15,2013-12-29 19:50:00,
2013-12-29 14:55:00,66.2,63.8,29.70,SW,235,20.0,27.0,92,0.00,,,0.20,Wunderground v.1.15,2013-12-29 19:55:00,
2013-12-29 15:00:00,65.8,63.7,29.70,WSW,244,9.0,14.0,93,0.11,,,0.21,Wunderground v.1.15,2013-12-29 20:00:00,
2013-12-29 15:05:00,65.4,63.3,29.70,WSW,239,15.0,28.0,93,0.13,,,0.22,Wunderground v.1.15,2013-12-29 20:05:00,
2013-12-29 15:10:00,65.0,62.9,29.70,WSW,249,16.0,16.0,93,0.71,,,0.26,Wunderground v.1.15,2013-12-29 20:10:00,
2013-12-29 15:15:00,64.4,62.6,29.71,West,265,12.0,24.0,94,0.91,,,0.36,Wunderground v.1.15,2013-12-29 20:15:00,
2013-12-29 15:20:00,64.2,62.7,29.70,WSW,242,16.0,19.0,95,0.17,,,0.39,Wunderground v.1.15,2013-12-29 20:20:00,
2013-12-29 15:25:00,64.0,62.5,29.71,SW,226,8.0,23.0,95,0.12,,,0.40,Wunderground v.1.15,2013-12-29 20:25:00,
2013-12-29 15:30:00,63.4,61.9,29.71,WSW,244,16.0,19.0,95,0.10,,,0.40,Wunderground v.1.15,2013-12-29 20:30:00,
2013-12-29 15:35:00,63.2,62.0,29.70,West,265,13.0,22.0,96,0.05,,,0.40,Wunderground v.1.15,2013-12-29 20:35:00,
2013-12-29 15:40:00,63.4,62.2,29.70,WSW,254,13.0,17.0,96,0.04,,,0.40,Wunderground v.1.15,2013-12-29 20:40:00,
2013-12-29 15:45:00,63.3,62.1,29.70,West,260,14.0,23.0,96,0.00,,,0.40,Wunderground v.1.15,2013-12-29 20:45:00,
2013-12-29 15:50:00,63.7,62.8,29.70,West,280,10.0,15.0,97,0.00,,,0.40,Wunderground v.1.15,2013-12-29 20:50:00,
2013-12-29 15:55:00,64.2,63.3,29.70,West,271,16.0,24.0,97,0.00,,,0.40,Wunderground v.1.15,2013-12-29 20:55:00,
2013-12-29 16:00:00,64.5,63.6,29.70,WSW,254,11.0,18.0,97,0.00,,,0.40,Wunderground v.1.15,2013-12-29 21:00:00,
2013-12-29 16:05:00,64.5,63.6,29.70,WSW,240,13.0,21.0,97,0.00,,,0.40,Wunderground v.1.15,2013-12-29 21:05:00,
2013-12-29 16:10:00,64.5,63.3,29.69,West,261,10.0,16.0,96,0.00,,,0.40,Wunderground v.1.15,2013-12-29 21:10:00,
2013-12-29 16:15:00,64.2,63.0,29.69,SW,226,15.0,24.0,96,0.00,,,0.40,Wunderground v.1.15,2013-12-29 21:15:00,
2013-12-29 16:20:00,64.1,62.9,29.70,West,261,12.0,17.0,96,0.00,,,0.40,Wunderground v.1.15,2013-12-29 21:20:00,
2013-12-29 16:25:00,64.1,62.9,29.70,WSW,249,14.0,27.0,96,0.00,,,0.40,Wunderground v.1.15,2013-12-29 21:25:00,
2013-12-29 16:30:00,64.2,63.0,29.71,West,269,12.0,21.0,96,0.00,,,0.40,Wunderground v.1.15,2013-12-29 21:30:00,
2013-12-29 16:35:00,64.6,63.4,29.70,WSW,256,8.0,23.0,96,0.00,,,0.40,Wunderground v.1.15,2013-12-29 21:35:00,
2013-12-29 16:40:00,64.6,63.4,29.71,West,259,15.0,19.0,96,0.00,,,0.40,Wunderground v.1.15,2013-12-29 21:40:00,
2013-12-29 16:45:00,64.7,63.5,29.71,WSW,244,18.0,22.0,96,0.00,,,0.40,Wunderground v.1.15,2013-12-29 21:45:00,
2013-12-29 16:50:00,64.4,63.2,29.71,WSW,247,16.0,23.0,96,0.00,,,0.40,Wunderground v.1.15,2013-12-29 21:50:00,
2013-12-29 16:55:00,64.3,63.1,29.71,WSW,254,13.0,28.0,96,0.00,,,0.40,Wunderground v.1.15,2013-12-29 21:55:00,
2013-12-29 17:00:00,64.1,62.6,29.71,WSW,250,13.0,14.0,95,0.00,,,0.40,Wunderground v.1.15,2013-12-29 22:00:00,
2013-12-29 17:05:00,64.1,62.9,29.71,WSW,239,14.0,21.0,96,0.00,,,0.40,Wunderground v.1.15,2013-12-29 22:05:00,
2013-12-29 17:10:00,64.0,62.5,29.71,SW,234,19.0,19.0,95,0.00,,,0.40,Wunderground v.1.15,2013-12-29 22:10:00,
2013-12-29 17:15:00,63.9,62.4,29.71,West,274,15.0,25.0,95,0.00,,,0.40,Wunderground v.1.15,2013-12-29 22:15:00,
2013-12-29 17:20:00,63.8,62.6,29.71,WSW,255,9.0,14.0,96,0.00,,,0.40,Wunderground v.1.15,2013-12-29 22:20:00,
2013-12-29 17:25:00,63.7,62.5,29.71,West,277,9.0,24.0,96,0.00,,,0.40,Wunderground v.1.15,2013-12-29 22:25:00,
2013-12-29 17:30:00,63.6,62.4,29.71,West,263,10.0,13.0,96,0.00,,,0.40,Wunderground v.1.15,2013-12-29 22:30:00,
2013-12-29 17:35:00,63.7,62.5,29.71,West,278,12.0,21.0,96,0.00,,,0.40,Wunderground v.1.15,2013-12-29 22:35:00,
2013-12-29 17:40:00,63.8,62.6,29.71,WSW,252,12.0,12.0,96,0.00,,,0.40,Wunderground v.1.15,2013-12-29 22:40:00,
2013-12-29 17:45:00,63.7,62.5,29.72,WSW,244,9.0,17.0,96,0.00,,,0.40,Wunderground v.1.15,2013-12-29 22:45:00,
2013-12-29 17:50:00,63.2,61.7,29.71,WSW,244,10.0,18.0,95,0.00,,,0.40,Wunderground v.1.15,2013-12-29 22:50:00,
2013-12-29 17:55:00,62.9,61.7,29.71,WSW,257,7.0,19.0,96,0.00,,,0.40,Wunderground v.1.15,2013-12-29 22:55:00,
2013-12-29 18:00:00,62.8,61.6,29.71,WSW,251,10.0,12.0,96,0.00,,,0.40,Wunderground v.1.15,2013-12-29 23:00:00,
2013-12-29 18:05:00,62.7,61.5,29.72,West,269,11.0,22.0,96,0.00,,,0.40,Wunderground v.1.15,2013-12-29 23:05:00,
2013-12-29 18:10:00,62.7,61.5,29.72,WSW,242,11.0,14.0,96,0.00,,,0.40,Wunderground v.1.15,2013-12-29 23:10:00,
2013-12-29 18:15:00,62.7,61.5,29.72,West,261,8.0,19.0,96,0.00,,,0.40,Wunderground v.1.15,2013-12-29 23:15:00,
2013-12-29 18:20:00,62.6,61.4,29.73,West,259,9.0,13.0,96,0.00,,,0.40,Wunderground v.1.15,2013-12-29 23:20:00,
2013-12-29 18:25:00,62.5,61.3,29.73,WSW,250,7.0,17.0,96,0.00,,,0.40,Wunderground v.1.15,2013-12-29 23:25:00,
2013-12-29 18:30:00,62.6,61.4,29.73,WSW,256,8.0,14.0,96,0.00,,,0.40,Wunderground v.1.15,2013-12-29 23:30:00,
2013-12-29 18:35:00,62.7,61.5,29.73,WSW,253,8.0,17.0,96,0.00,,,0.40,Wunderground v.1.15,2013-12-29 23:35:00,
2013-12-29 18:40:00,62.9,61.7,29.74,West,261,6.0,13.0,96,0.00,,,0.40,Wunderground v.1.15,2013-12-29 23:40:00,
2013-12-29 18:45:00,62.9,61.7,29.74,SW,234,9.0,16.0,96,0.00,,,0.40,Wunderground v.1.15,2013-12-29 23:45:00,
2013-12-29 18:50:00,62.7,61.5,29.74,WSW,249,9.0,10.0,96,0.00,,,0.40,Wunderground v.1.15,2013-12-29 23:50:00,
2013-12-29 18:55:00,62.4,61.2,29.74,WSW,244,4.0,15.0,96,0.00,,,0.40,Wunderground v.1.15,2013-12-29 23:55:00,
2013-12-29 19:00:00,62.3,61.1,29.74,WSW,257,5.0,12.0,96,0.00,,,0.40,Wunderground v.1.15,2013-12-30 00:00:00,
2013-12-29 19:05:00,62.2,61.0,29.75,WSW,255,5.0,14.0,96,0.00,,,0.40,Wunderground v.1.15,2013-12-30 00:05:00,
2013-12-29 19:10:00,62.2,61.0,29.75,West,261,4.0,7.0,96,0.00,,,0.40,Wunderground v.1.15,2013-12-30 00:10:00,
2013-12-29 19:15:00,62.2,61.0,29.75,WSW,248,3.0,11.0,96,0.00,,,0.40,Wunderground v.1.15,2013-12-30 00:15:00,
2013-12-29 19:20:00,62.3,61.1,29.76,West,275,6.0,8.0,96,0.00,,,0.40,Wunderground v.1.15,2013-12-30 00:20:00,
2013-12-29 19:25:00,62.3,61.1,29.76,West,267,10.0,13.0,96,0.00,,,0.40,Wunderground v.1.15,2013-12-30 00:25:00,
2013-12-29 19:30:00,62.4,61.2,29.77,West,275,8.0,11.0,96,0.00,,,0.40,Wunderground v.1.15,2013-12-30 00:30:00,
2013-12-29 19:35:00,62.5,61.6,29.78,West,279,8.0,15.0,97,0.00,,,0.40,Wunderground v.1.15,2013-12-30 00:35:00,
2013-12-29 19:40:00,62.5,61.6,29.78,West,270,6.0,11.0,97,0.00,,,0.40,Wunderground v.1.15,2013-12-30 00:40:00,
2013-12-29 19:45:00,62.6,61.7,29.78,West,278,7.0,15.0,97,0.00,,,0.40,Wunderground v.1.15,2013-12-30 00:45:00,
2013-12-29 19:50:00,62.6,61.7,29.78,West,281,16.0,16.0,97,0.00,,,0.40,Wunderground v.1.15,2013-12-30 00:50:00,
2013-12-29 19:55:00,62.5,61.3,29.79,West,271,8.0,17.0,96,0.00,,,0.40,Wunderground v.1.15,2013-12-30 00:55:00,
2013-12-29 20:00:00,62.5,61.3,29.79,West,269,7.0,10.0,96,0.00,,,0.40,Wunderground v.1.15,2013-12-30 01:00:00,
2013-12-29 20:05:00,62.4,61.2,29.80,West,278,12.0,14.0,96,0.00,,,0.40,Wunderground v.1.15,2013-12-30 01:05:00,
2013-12-29 20:10:00,62.0,60.6,29.81,NNW,337,12.0,12.0,95,0.00,,,0.40,Wunderground v.1.15,2013-12-30 01:10:00,
2013-12-29 20:15:00,60.2,58.8,29.81,NW,325,8.0,14.0,95,0.00,,,0.40,Wunderground v.1.15,2013-12-30 01:15:00,
2013-12-29 20:20:00,59.4,58.0,29.81,NW,323,6.0,9.0,95,0.00,,,0.40,Wunderground v.1.15,2013-12-30 01:20:00,
2013-12-29 20:25:00,59.1,58.0,29.81,NW,319,4.0,11.0,96,0.00,,,0.40,Wunderground v.1.15,2013-12-30 01:25:00,
2013-12-29 20:30:00,59.0,57.9,29.81,NW,321,5.0,6.0,96,0.00,,,0.40,Wunderground v.1.15,2013-12-30 01:30:00,
2013-12-29 20:35:00,59.1,58.0,29.81,NW,312,3.0,11.0,96,0.00,,,0.40,Wunderground v.1.15,2013-12-30 01:35:00,
2013-12-29 20:40:00,58.9,57.8,29.82,NW,310,3.0,6.0,96,0.00,,,0.40,Wunderground v.1.15,2013-12-30 01:40:00,
2013-12-29 20:45:00,58.6,57.5,29.82,NW,313,5.0,11.0,96,0.00,,,0.40,Wunderground v.1.15,2013-12-30 01:45:00,
2013-12-29 20:50:00,58.2,57.1,29.82,NW,319,4.0,6.0,96,0.00,,,0.40,Wunderground v.1.15,2013-12-30 01:50:00,
2013-12-29 20:55:00,57.7,56.6,29.83,NNW,327,8.0,12.0,96,0.00,,,0.40,Wunderground v.1.15,2013-12-30 01:55:00,
2013-12-29 21:00:00,57.5,56.4,29.83,NW,324,5.0,12.0,96,0.00,,,0.40,Wunderground v.1.15,2013-12-30 02:00:00,
2013-12-29 21:05:00,57.5,56.1,29.83,NW,310,9.0,14.0,95,0.00,,,0.40,Wunderground v.1.15,2013-12-30 02:05:00,
2013-12-29 21:10:00,57.7,56.3,29.84,NW,321,6.0,14.0,95,0.00,,,0.40,Wunderground v.1.15,2013-12-30 02:10:00,
2013-12-29 21:15:00,57.7,56.3,29.84,NNW,334,5.0,12.0,95,0.00,,,0.40,Wunderground v.1.15,2013-12-30 02:15:00,
2013-12-29 21:20:00,57.3,55.6,29.84,NNW,332,5.0,12.0,94,0.00,,,0.40,Wunderground v.1.15,2013-12-30 02:20:00,
2013-12-29 21:25:00,56.9,55.2,29.85,NNW,337,4.0,10.0,94,0.00,,,0.40,Wunderground v.1.15,2013-12-30 02:25:00,
2013-12-29 21:30:00,56.6,54.9,29.85,NNW,337,8.0,10.0,94,0.00,,,0.40,Wunderground v.1.15,2013-12-30 02:30:00,
2013-12-29 21:35:00,56.5,54.8,29.85,NNW,336,8.0,9.0,94,0.00,,,0.40,Wunderground v.1.15,2013-12-30 02:35:00,
2013-12-29 21:40:00,56.5,54.8,29.86,NNW,335,5.0,10.0,94,0.00,,,0.40,Wunderground v.1.15,2013-12-30 02:40:00,
2013-12-29 21:44:00,56.4,54.7,29.86,NNW,335,5.0,6.0,94,0.00,,,0.40,Wunderground v.1.15,2013-12-30 02:44:00,
2013-12-29 21:49:00,56.2,54.5,29.86,NNW,335,4.0,6.0,94,0.00,,,0.40,Wunderground v.1.15,2013-12-30 02:49:00,
2013-12-29 21:54:00,55.9,54.2,29.86,NNW,335,4.0,8.0,94,0.00,,,0.40,Wunderground v.1.15,2013-12-30 02:54:00,
2013-12-29 21:59:00,55.8,54.1,29.86,NNW,335,3.0,8.0,94,0.00,,,0.40,Wunderground v.1.15,2013-12-30 02:59:00,
2013-12-29 22:04:00,55.7,54.0,29.86,NNW,335,1.0,5.0,94,0.00,,,0.40,Wunderground v.1.15,2013-12-30 03:04:00,
2013-12-29 22:09:00,55.5,53.8,29.86,NNW,335,5.0,5.0,94,0.00,,,0.40,Wunderground v.1.15,2013-12-30 03:09:00,
2013-12-29 22:14:00,55.5,53.8,29.87,NNW,335,3.0,6.0,94,0.00,,,0.40,Wunderground v.1.15,2013-12-30 03:14:00,
2013-12-29 22:19:00,55.4,53.7,29.87,NNW,335,0.0,6.0,94,0.00,,,0.40,Wunderground v.1.15,2013-12-30 03:19:00,
2013-12-29 22:24:00,55.4,53.7,29.87,NNW,335,0.0,6.0,94,0.00,,,0.40,Wunderground v.1.15,2013-12-30 03:24:00,
2013-12-29 22:29:00,55.4,53.7,29.87,NNW,335,4.0,6.0,94,0.00,,,0.40,Wunderground v.1.15,2013-12-30 03:29:00,
2013-12-29 22:34:00,55.5,53.8,29.87,NNW,335,3.0,6.0,94,0.00,,,0.40,Wunderground v.1.15,2013-12-30 03:34:00,
2013-12-29 22:39:00,55.5,53.8,29.87,NNW,334,4.0,8.0,94,0.00,,,0.40,Wunderground v.1.15,2013-12-30 03:39:00,
2013-12-29 22:44:00,55.4,53.7,29.87,NW,324,5.0,9.0,94,0.00,,,0.40,Wunderground v.1.15,2013-12-30 03:44:00,
2013-12-29 22:49:00,55.4,53.7,29.88,NW,315,4.0,9.0,94,0.00,,,0.40,Wunderground v.1.15,2013-12-30 03:49:00,
2013-12-29 22:54:00,55.5,53.8,29.88,NW,307,5.0,10.0,94,0.00,,,0.40,Wunderground v.1.15,2013-12-30 03:54:00,
2013-12-29 22:59:00,55.6,53.9,29.88,NW,304,3.0,10.0,94,0.00,,,0.40,Wunderground v.1.15,2013-12-30 03:59:00,
2013-12-29 23:04:00,55.6,53.6,29.88,WNW,302,7.0,11.0,93,0.00,,,0.40,Wunderground v.1.15,2013-12-30 04:04:00,
2013-12-29 23:09:00,55.6,53.6,29.88,NW,304,7.0,11.0,93,0.00,,,0.40,Wunderground v.1.15,2013-12-30 04:09:00,
2013-12-29 23:14:00,55.4,53.1,29.88,NW,322,10.0,12.0,92,0.00,,,0.40,Wunderground v.1.15,2013-12-30 04:14:00,
2013-12-29 23:19:00,55.3,53.0,29.88,NW,316,8.0,14.0,92,0.00,,,0.40,Wunderground v.1.15,2013-12-30 04:19:00,
2013-12-29 23:24:00,55.1,52.8,29.88,NW,317,5.0,14.0,92,0.00,,,0.40,Wunderground v.1.15,2013-12-30 04:24:00,
2013-12-29 23:29:00,55.0,52.7,29.89,NW,322,5.0,14.0,92,0.00,,,0.40,Wunderground v.1.15,2013-12-30 04:29:00,
2013-12-29 23:34:00,54.9,52.6,29.89,NW,317,8.0,11.0,92,0.00,,,0.40,Wunderground v.1.15,2013-12-30 04:34:00,
2013-12-29 23:39:00,54.7,52.4,29.89,NW,315,5.0,12.0,92,0.00,,,0.40,Wunderground v.1.15,2013-12-30 04:39:00,
2013-12-29 23:44:00,54.6,52.3,29.89,NW,314,10.0,12.0,92,0.00,,,0.40,Wunderground v.1.15,2013-12-30 04:44:00,
2013-12-29 23:49:00,54.5,52.2,29.89,NW,315,6.0,12.0,92,0.00,,,0.40,Wunderground v.1.15,2013-12-30 04:49:00,
2013-12-29 23:54:00,54.5,52.2,29.89,NW,317,8.0,13.0,92,0.00,,,0.40,Wunderground v.1.15,2013-12-30 04:54:00,
2013-12-29 23:59:00,54.3,52.0,29.89,NW,320,12.0,13.0,92,0.00,,,0.40,Wunderground v.1.15,2013-12-30 04:59:00,